Location: Arboyeti
(42.1122°N, 44.6017°E)
Time: 21:16:44
(UTC+00:00)

Cosmos 2278 Rocket - Pass Details

Date: 19 April 2021
Orbit: 843 x 844 km, 71.0° (Epoch: 18 May)

Event Time Altitude Azimuth Distance (km) Brightness Sun altitude
Exits shadow 22:20:49 40° 67° (ENE) 1,221 3.2 -33.3°
Drops below altitude 10° 22:24:50 10° 35° (NE) 2,469 5.4 -33.0°
Sets 22:27:21 0° 30° (NNE) 3,408 6.5 -32.8°
